Time,TemperatureF,DewpointF,PressureIn,WindDirection,WindDirectionDegrees,WindSpeedMPH,WindSpeedGustMPH,Humidity,HourlyPrecipIn,Conditions,Clouds,dailyrainin,SoftwareType,DateUTC
2013-01-25 00:00:00,44.5,32.7,30.26,NNE,13,0.0,1.0,63,0.00,,---,0.00,VWS V14.01,2013-01-25 07:00:00,
2013-01-25 00:01:00,44.3,32.5,30.26,NNE,13,0.0,0.0,63,0.00,,---,0.00,VWS V14.01,2013-01-25 07:01:00,
2013-01-25 00:05:00,44.3,32.5,30.26,NNE,13,0.0,0.0,63,0.00,,---,0.00,VWS V14.01,2013-01-25 07:05:00,
2013-01-25 00:06:00,44.3,32.1,30.25,NNE,13,0.0,0.0,62,0.00,,---,0.00,VWS V14.01,2013-01-25 07:06:00,
2013-01-25 00:10:00,44.5,32.3,30.25,NNE,13,0.0,0.0,62,0.00,,---,0.00,VWS V14.01,2013-01-25 07:10:00,
2013-01-25 00:11:00,44.6,32.0,30.25,NNE,13,0.0,0.0,61,0.00,,---,0.00,VWS V14.01,2013-01-25 07:11:00,
2013-01-25 00:15:00,44.7,32.1,30.25,NNE,13,0.0,0.0,61,0.00,,---,0.00,VWS V14.01,2013-01-25 07:15:00,
2013-01-25 00:16:00,44.8,31.8,30.25,NNE,13,0.0,1.0,60,0.00,,---,0.00,VWS V14.01,2013-01-25 07:16:00,
2013-01-25 00:20:00,45.0,32.0,30.25,NNE,13,0.0,1.0,60,0.00,,---,0.00,VWS V14.01,2013-01-25 07:20:00,
2013-01-25 00:21:00,45.0,31.5,30.25,NNE,13,1.0,1.0,59,0.00,,---,0.00,VWS V14.01,2013-01-25 07:21:00,
2013-01-25 00:25:00,44.9,31.5,30.25,NNE,13,0.0,2.0,59,0.00,,---,0.00,VWS V14.01,2013-01-25 07:25:00,
2013-01-25 00:26:00,44.6,31.6,30.26,North,355,1.0,3.0,60,0.00,,---,0.00,VWS V14.01,2013-01-25 07:26:00,
2013-01-25 00:30:00,44.5,31.5,30.25,North,355,0.0,3.0,60,0.00,,---,0.00,VWS V14.01,2013-01-25 07:30:00,
2013-01-25 00:31:00,44.2,30.8,30.26,North,355,0.0,0.0,59,0.00,,---,0.00,VWS V14.01,2013-01-25 07:31:00,
2013-01-25 00:35:00,43.9,30.9,30.26,North,355,0.0,0.0,60,0.00,,---,0.00,VWS V14.01,2013-01-25 07:35:00,
2013-01-25 00:36:00,43.8,31.2,30.26,North,355,0.0,0.0,61,0.00,,---,0.00,VWS V14.01,2013-01-25 07:36:00,
2013-01-25 00:40:00,43.8,31.2,30.26,North,355,0.0,0.0,61,0.00,,---,0.00,VWS V14.01,2013-01-25 07:40:00,
2013-01-25 00:41:00,43.8,31.2,30.27,North,355,0.0,0.0,61,0.00,,---,0.00,VWS V14.01,2013-01-25 07:41:00,
2013-01-25 00:45:00,44.0,31.4,30.27,North,355,0.0,0.0,61,0.00,,---,0.00,VWS V14.01,2013-01-25 07:45:00,
2013-01-25 00:46:00,43.8,30.8,30.27,North,355,0.0,0.0,60,0.00,,---,0.00,VWS V14.01,2013-01-25 07:46:00,
2013-01-25 00:50:00,43.4,30.9,30.27,North,355,0.0,0.0,61,0.00,,---,0.00,VWS V14.01,2013-01-25 07:50:00,
2013-01-25 00:51:00,43.1,31.0,30.27,North,355,0.0,0.0,62,0.00,,---,0.00,VWS V14.01,2013-01-25 07:51:00,
2013-01-25 00:55:00,43.0,31.3,30.27,North,355,0.0,0.0,63,0.00,,---,0.00,VWS V14.01,2013-01-25 07:55:00,
2013-01-25 00:56:00,43.0,31.3,30.27,North,355,0.0,0.0,63,0.00,,---,0.00,VWS V14.01,2013-01-25 07:56:00,
2013-01-25 01:00:00,43.1,31.0,30.27,North,355,0.0,0.0,62,0.00,,---,0.00,VWS V14.01,2013-01-25 08:00:00,
2013-01-25 01:01:00,43.3,31.2,30.27,North,355,0.0,0.0,62,0.00,,---,0.00,VWS V14.01,2013-01-25 08:01:00,
2013-01-25 01:05:00,43.6,31.5,30.27,North,355,0.0,0.0,62,0.00,,---,0.00,VWS V14.01,2013-01-25 08:05:00,
2013-01-25 01:06:00,43.9,31.7,30.27,North,355,1.0,1.0,62,0.00,,---,0.00,VWS V14.01,2013-01-25 08:06:00,
2013-01-25 01:10:00,44.2,31.6,30.27,North,355,0.0,1.0,61,0.00,,---,0.00,VWS V14.01,2013-01-25 08:10:00,
2013-01-25 01:11:00,44.4,31.8,30.27,North,355,0.0,1.0,61,0.00,,---,0.00,VWS V14.01,2013-01-25 08:11:00,
2013-01-25 01:15:00,44.7,31.7,30.27,North,355,0.0,1.0,60,0.00,,---,0.00,VWS V14.01,2013-01-25 08:15:00,
2013-01-25 01:16:00,44.9,31.9,30.27,North,355,2.0,2.0,60,0.00,,---,0.00,VWS V14.01,2013-01-25 08:16:00,
2013-01-25 01:20:00,45.1,31.6,30.27,North,355,1.0,2.0,59,0.00,,---,0.00,VWS V14.01,2013-01-25 08:20:00,
2013-01-25 01:21:00,45.2,31.7,30.27,North,355,2.0,2.0,59,0.00,,---,0.00,VWS V14.01,2013-01-25 08:21:00,
2013-01-25 01:25:00,45.2,31.7,30.27,NNW,343,1.0,3.0,59,0.00,,---,0.00,VWS V14.01,2013-01-25 08:25:00,
2013-01-25 01:26:00,45.3,31.8,30.27,NNW,343,0.0,1.0,59,0.00,,---,0.00,VWS V14.01,2013-01-25 08:26:00,
2013-01-25 01:30:00,45.4,31.9,30.27,NNW,344,0.0,3.0,59,0.00,,---,0.00,VWS V14.01,2013-01-25 08:30:00,
2013-01-25 01:31:00,45.4,31.9,30.27,North,350,2.0,4.0,59,0.00,,---,0.00,VWS V14.01,2013-01-25 08:31:00,
2013-01-25 01:35:00,45.6,32.1,30.27,North,350,0.0,4.0,59,0.00,,---,0.00,VWS V14.01,2013-01-25 08:35:00,
2013-01-25 01:36:00,45.5,32.0,30.27,North,350,0.0,0.0,59,0.00,,---,0.00,VWS V14.01,2013-01-25 08:36:00,
2013-01-25 01:40:00,45.2,31.7,30.27,North,350,0.0,0.0,59,0.00,,---,0.00,VWS V14.01,2013-01-25 08:40:00,
2013-01-25 01:41:00,45.0,31.5,30.27,North,350,0.0,0.0,59,0.00,,---,0.00,VWS V14.01,2013-01-25 08:41:00,
2013-01-25 01:45:00,44.9,31.5,30.27,North,350,0.0,1.0,59,0.00,,---,0.00,VWS V14.01,2013-01-25 08:45:00,
2013-01-25 01:46:00,44.6,31.6,30.27,North,350,0.0,2.0,60,0.00,,---,0.00,VWS V14.01,2013-01-25 08:46:00,
2013-01-25 01:50:00,44.4,31.4,30.27,North,350,0.0,2.0,60,0.00,,---,0.00,VWS V14.01,2013-01-25 08:50:00,
2013-01-25 01:51:00,44.2,31.2,30.26,North,350,0.0,0.0,60,0.00,,---,0.00,VWS V14.01,2013-01-25 08:51:00,
2013-01-25 01:55:00,44.1,31.5,30.27,North,350,0.0,2.0,61,0.00,,---,0.00,VWS V14.01,2013-01-25 08:55:00,
2013-01-25 01:56:00,44.1,31.9,30.27,North,350,0.0,1.0,62,0.00,,---,0.00,VWS V14.01,2013-01-25 08:56:00,
2013-01-25 02:01:00,44.0,31.8,30.27,North,350,0.0,0.0,62,0.00,,---,0.00,VWS V14.01,2013-01-25 09:01:00,
2013-01-25 02:05:00,44.0,31.8,30.26,North,5,2.0,2.0,62,0.00,,---,0.00,VWS V14.01,2013-01-25 09:05:00,
2013-01-25 02:06:00,44.0,31.8,30.26,NE,51,1.0,3.0,62,0.00,,---,0.00,VWS V14.01,2013-01-25 09:06:00,
2013-01-25 02:10:00,44.0,31.8,30.26,NE,51,1.0,3.0,62,0.00,,---,0.00,VWS V14.01,2013-01-25 09:10:00,
2013-01-25 02:11:00,43.9,32.1,30.26,NE,51,0.0,1.0,63,0.00,,---,0.00,VWS V14.01,2013-01-25 09:11:00,
2013-01-25 02:15:00,43.6,31.9,30.26,NE,51,0.0,1.0,63,0.00,,---,0.00,VWS V14.01,2013-01-25 09:15:00,
2013-01-25 02:16:00,43.4,31.7,30.26,NE,51,0.0,2.0,63,0.00,,---,0.00,VWS V14.01,2013-01-25 09:16:00,
2013-01-25 02:20:00,43.5,32.5,30.25,NE,46,0.0,2.0,65,0.00,,---,0.00,VWS V14.01,2013-01-25 09:20:00,
2013-01-25 02:21:00,43.7,32.3,30.25,NE,45,0.0,1.0,64,0.00,,---,0.00,VWS V14.01,2013-01-25 09:21:00,
2013-01-25 02:25:00,43.9,32.5,30.25,NE,45,0.0,2.0,64,0.00,,---,0.00,VWS V14.01,2013-01-25 09:25:00,
2013-01-25 02:26:00,44.1,32.7,30.25,NNE,27,0.0,2.0,64,0.00,,---,0.00,VWS V14.01,2013-01-25 09:26:00,
2013-01-25 02:30:00,44.3,32.9,30.25,ENE,65,1.0,2.0,64,0.00,,---,0.00,VWS V14.01,2013-01-25 09:30:00,
2013-01-25 02:31:00,44.3,32.9,30.25,NE,46,0.0,2.0,64,0.00,,---,0.00,VWS V14.01,2013-01-25 09:31:00,
2013-01-25 02:35:00,44.5,33.1,30.25,NE,46,0.0,2.0,64,0.00,,---,0.00,VWS V14.01,2013-01-25 09:35:00,
2013-01-25 02:36:00,44.5,33.1,30.25,NE,46,1.0,1.0,64,0.00,,---,0.00,VWS V14.01,2013-01-25 09:36:00,
2013-01-25 02:40:00,44.4,33.0,30.25,NNE,32,0.0,2.0,64,0.00,,---,0.00,VWS V14.01,2013-01-25 09:40:00,
2013-01-25 02:41:00,44.4,33.0,30.25,North,5,0.0,2.0,64,0.00,,---,0.00,VWS V14.01,2013-01-25 09:41:00,
2013-01-25 02:45:00,44.5,33.1,30.25,North,5,2.0,3.0,64,0.00,,---,0.00,VWS V14.01,2013-01-25 09:45:00,
2013-01-25 02:46:00,44.5,33.1,30.25,North,5,1.0,2.0,64,0.00,,---,0.00,VWS V14.01,2013-01-25 09:46:00,
2013-01-25 02:50:00,44.6,33.2,30.25,North,5,2.0,2.0,64,0.00,,---,0.00,VWS V14.01,2013-01-25 09:50:00,
2013-01-25 02:51:00,44.6,33.2,30.25,North,5,1.0,2.0,64,0.00,,---,0.00,VWS V14.01,2013-01-25 09:51:00,
2013-01-25 02:55:00,44.6,33.2,30.25,North,360,0.0,2.0,64,0.00,,---,0.00,VWS V14.01,2013-01-25 09:55:00,
2013-01-25 02:56:00,44.6,33.2,30.25,North,360,0.0,0.0,64,0.00,,---,0.00,VWS V14.01,2013-01-25 09:56:00,
2013-01-25 03:00:00,44.5,33.1,30.25,North,360,0.0,0.0,64,0.00,,---,0.00,VWS V14.01,2013-01-25 10:00:00,
2013-01-25 03:01:00,44.4,33.0,30.25,North,360,0.0,0.0,64,0.00,,---,0.00,VWS V14.01,2013-01-25 10:01:00,
2013-01-25 03:05:00,44.1,32.7,30.25,North,360,0.0,0.0,64,0.00,,---,0.00,VWS V14.01,2013-01-25 10:05:00,
2013-01-25 03:06:00,43.9,32.9,30.25,North,360,0.0,0.0,65,0.00,,---,0.00,VWS V14.01,2013-01-25 10:06:00,
2013-01-25 03:11:00,43.6,32.6,30.25,North,360,0.0,0.0,65,0.00,,---,0.00,VWS V14.01,2013-01-25 10:11:00,
2013-01-25 03:15:00,43.3,32.7,30.25,North,360,0.0,0.0,66,0.00,,---,0.00,VWS V14.01,2013-01-25 10:15:00,
2013-01-25 03:16:00,43.1,32.5,30.25,North,360,0.0,0.0,66,0.00,,---,0.00,VWS V14.01,2013-01-25 10:16:00,
2013-01-25 03:20:00,42.8,32.6,30.25,North,360,0.0,0.0,67,0.00,,---,0.00,VWS V14.01,2013-01-25 10:20:00,
2013-01-25 03:21:00,42.8,32.6,30.25,North,360,0.0,0.0,67,0.00,,---,0.00,VWS V14.01,2013-01-25 10:21:00,
2013-01-25 03:25:00,42.7,32.5,30.25,North,360,0.0,0.0,67,0.00,,---,0.00,VWS V14.01,2013-01-25 10:25:00,
2013-01-25 03:26:00,42.6,32.4,30.25,North,360,0.0,0.0,67,0.00,,---,0.00,VWS V14.01,2013-01-25 10:26:00,
2013-01-25 03:30:00,42.4,32.2,30.24,North,360,0.0,0.0,67,0.00,,---,0.00,VWS V14.01,2013-01-25 10:30:00,
2013-01-25 03:31:00,42.3,32.1,30.24,North,360,0.0,0.0,67,0.00,,---,0.00,VWS V14.01,2013-01-25 10:31:00,
2013-01-25 03:35:00,42.3,32.5,30.24,North,360,0.0,0.0,68,0.00,,---,0.00,VWS V14.01,2013-01-25 10:35:00,
2013-01-25 03:36:00,42.4,32.6,30.24,North,360,0.0,0.0,68,0.00,,---,0.00,VWS V14.01,2013-01-25 10:36:00,
2013-01-25 03:40:00,42.2,32.0,30.23,North,360,0.0,0.0,67,0.00,,---,0.00,VWS V14.01,2013-01-25 10:40:00,
2013-01-25 03:41:00,41.9,31.8,30.23,North,360,0.0,0.0,67,0.00,,---,0.00,VWS V14.01,2013-01-25 10:41:00,
2013-01-25 03:45:00,41.7,32.3,30.23,North,360,0.0,0.0,69,0.00,,---,0.00,VWS V14.01,2013-01-25 10:45:00,
2013-01-25 03:46:00,41.7,32.3,30.23,North,360,0.0,0.0,69,0.00,,---,0.00,VWS V14.01,2013-01-25 10:46:00,
2013-01-25 03:50:00,41.5,32.1,30.23,North,360,0.0,0.0,69,0.00,,---,0.00,VWS V14.01,2013-01-25 10:50:00,
2013-01-25 03:51:00,41.3,31.9,30.23,North,360,0.0,0.0,69,0.00,,---,0.00,VWS V14.01,2013-01-25 10:51:00,
2013-01-25 03:55:00,41.1,31.7,30.23,North,360,0.0,0.0,69,0.00,,---,0.00,VWS V14.01,2013-01-25 10:55:00,
2013-01-25 03:56:00,41.1,32.1,30.23,North,360,0.0,0.0,70,0.00,,---,0.00,VWS V14.01,2013-01-25 10:56:00,
2013-01-25 04:00:00,41.0,32.0,30.23,North,360,0.0,0.0,70,0.00,,---,0.00,VWS V14.01,2013-01-25 11:00:00,
2013-01-25 04:01:00,40.9,31.9,30.23,North,360,0.0,0.0,70,0.00,,---,0.00,VWS V14.01,2013-01-25 11:01:00,
2013-01-25 04:06:00,40.7,32.0,30.22,North,360,0.0,0.0,71,0.00,,---,0.00,VWS V14.01,2013-01-25 11:06:00,
2013-01-25 04:10:00,40.7,31.7,30.22,North,360,0.0,0.0,70,0.00,,---,0.00,VWS V14.01,2013-01-25 11:10:00,
2013-01-25 04:11:00,40.7,31.7,30.22,North,360,0.0,0.0,70,0.00,,---,0.00,VWS V14.01,2013-01-25 11:11:00,
2013-01-25 04:15:00,40.6,31.6,30.22,North,360,0.0,0.0,70,0.00,,---,0.00,VWS V14.01,2013-01-25 11:15:00,
2013-01-25 04:16:00,40.6,31.6,30.21,North,360,0.0,0.0,70,0.00,,---,0.00,VWS V14.01,2013-01-25 11:16:00,
2013-01-25 04:20:00,40.6,31.6,30.21,North,360,0.0,0.0,70,0.00,,---,0.00,VWS V14.01,2013-01-25 11:20:00,
2013-01-25 04:21:00,40.7,31.7,30.21,North,360,0.0,1.0,70,0.00,,---,0.00,VWS V14.01,2013-01-25 11:21:00,
2013-01-25 04:25:00,40.7,31.7,30.21,North,360,0.0,1.0,70,0.00,,---,0.00,VWS V14.01,2013-01-25 11:25:00,
2013-01-25 04:26:00,40.7,31.7,30.20,North,360,0.0,0.0,70,0.00,,---,0.00,VWS V14.01,2013-01-25 11:26:00,
2013-01-25 04:30:00,40.7,32.0,30.20,North,360,0.0,0.0,71,0.00,,---,0.00,VWS V14.01,2013-01-25 11:30:00,
2013-01-25 04:31:00,40.7,32.0,30.20,North,360,0.0,0.0,71,0.00,,---,0.00,VWS V14.01,2013-01-25 11:31:00,
2013-01-25 04:35:00,40.6,31.6,30.21,North,360,0.0,0.0,70,0.00,,---,0.00,VWS V14.01,2013-01-25 11:35:00,
2013-01-25 04:36:00,40.5,31.9,30.21,North,360,0.0,0.0,71,0.00,,---,0.00,VWS V14.01,2013-01-25 11:36:00,
2013-01-25 04:41:00,40.4,31.8,30.20,North,360,0.0,0.0,71,0.00,,---,0.00,VWS V14.01,2013-01-25 11:41:00,
2013-01-25 04:45:00,40.5,31.9,30.20,North,360,0.0,0.0,71,0.00,,---,0.00,VWS V14.01,2013-01-25 11:45:00,
2013-01-25 04:46:00,40.6,32.0,30.20,North,360,0.0,0.0,71,0.00,,---,0.00,VWS V14.01,2013-01-25 11:46:00,
2013-01-25 04:50:00,40.6,31.6,30.20,North,360,0.0,0.0,70,0.00,,---,0.00,VWS V14.01,2013-01-25 11:50:00,
2013-01-25 04:51:00,40.5,31.5,30.20,North,360,0.0,0.0,70,0.00,,---,0.00,VWS V14.01,2013-01-25 11:51:00,
2013-01-25 04:55:00,40.3,31.7,30.20,North,360,0.0,0.0,71,0.00,,---,0.00,VWS V14.01,2013-01-25 11:55:00,
2013-01-25 04:56:00,40.3,31.7,30.19,North,360,0.0,0.0,71,0.00,,---,0.00,VWS V14.01,2013-01-25 11:56:00,
2013-01-25 05:00:00,40.0,31.4,30.19,North,360,0.0,0.0,71,0.00,,---,0.00,VWS V14.01,2013-01-25 12:00:00,
2013-01-25 05:01:00,40.0,31.4,30.19,North,360,0.0,0.0,71,0.00,,---,0.00,VWS V14.01,2013-01-25 12:01:00,
2013-01-25 05:05:00,39.7,31.1,30.19,North,360,0.0,0.0,71,0.00,,---,0.00,VWS V14.01,2013-01-25 12:05:00,
2013-01-25 05:06:00,39.5,30.9,30.19,North,360,0.0,0.0,71,0.00,,---,0.00,VWS V14.01,2013-01-25 12:06:00,
2013-01-25 05:10:00,39.2,31.0,30.19,North,360,0.0,0.0,72,0.00,,---,0.00,VWS V14.01,2013-01-25 12:10:00,
2013-01-25 05:11:00,39.1,30.9,30.20,North,360,0.0,0.0,72,0.00,,---,0.00,VWS V14.01,2013-01-25 12:11:00,
2013-01-25 05:15:00,38.9,31.0,30.20,North,360,0.0,0.0,73,0.00,,---,0.00,VWS V14.01,2013-01-25 12:15:00,
2013-01-25 05:16:00,38.8,30.9,30.20,North,360,0.0,0.0,73,0.00,,---,0.00,VWS V14.01,2013-01-25 12:16:00,
2013-01-25 05:20:00,38.7,30.8,30.20,North,360,0.0,0.0,73,0.00,,---,0.00,VWS V14.01,2013-01-25 12:20:00,
2013-01-25 05:21:00,38.7,30.8,30.20,North,360,0.0,0.0,73,0.00,,---,0.00,VWS V14.01,2013-01-25 12:21:00,
2013-01-25 05:25:00,38.5,31.0,30.20,North,360,0.0,0.0,74,0.00,,---,0.00,VWS V14.01,2013-01-25 12:25:00,
2013-01-25 05:26:00,38.4,30.9,30.21,North,360,0.0,0.0,74,0.00,,---,0.00,VWS V14.01,2013-01-25 12:26:00,
2013-01-25 05:30:00,38.4,30.9,30.21,North,360,0.0,0.0,74,0.00,,---,0.00,VWS V14.01,2013-01-25 12:30:00,
2013-01-25 05:31:00,38.4,31.2,30.21,North,360,0.0,0.0,75,0.00,,---,0.00,VWS V14.01,2013-01-25 12:31:00,
2013-01-25 05:35:00,38.4,31.2,30.21,North,360,0.0,0.0,75,0.00,,---,0.00,VWS V14.01,2013-01-25 12:35:00,
2013-01-25 05:36:00,38.4,31.2,30.21,North,360,0.0,0.0,75,0.00,,---,0.00,VWS V14.01,2013-01-25 12:36:00,
2013-01-25 05:41:00,38.1,30.6,30.22,North,360,0.0,0.0,74,0.00,,---,0.00,VWS V14.01,2013-01-25 12:41:00,
2013-01-25 05:45:00,38.0,30.8,30.22,North,360,0.0,0.0,75,0.00,,---,0.00,VWS V14.01,2013-01-25 12:45:00,
2013-01-25 05:46:00,38.0,31.1,30.22,North,360,0.0,0.0,76,0.00,,---,0.00,VWS V14.01,2013-01-25 12:46:00,
2013-01-25 05:50:00,37.8,30.6,30.22,North,360,0.0,0.0,75,0.00,,---,0.00,VWS V14.01,2013-01-25 12:50:00,
2013-01-25 05:51:00,37.8,30.6,30.22,North,360,0.0,0.0,75,0.00,,---,0.00,VWS V14.01,2013-01-25 12:51:00,
2013-01-25 05:55:00,37.8,30.9,30.22,North,360,0.0,0.0,76,0.00,,---,0.00,VWS V14.01,2013-01-25 12:55:00,
2013-01-25 05:56:00,37.8,30.9,30.22,North,360,0.0,0.0,76,0.00,,---,0.00,VWS V14.01,2013-01-25 12:56:00,
2013-01-25 06:00:00,37.9,31.0,30.23,North,360,0.0,0.0,76,0.00,,---,0.00,VWS V14.01,2013-01-25 13:00:00,
2013-01-25 06:01:00,37.9,31.0,30.22,North,360,0.0,0.0,76,0.00,,---,0.00,VWS V14.01,2013-01-25 13:01:00,
2013-01-25 06:05:00,38.0,31.1,30.22,North,360,0.0,0.0,76,0.00,,---,0.00,VWS V14.01,2013-01-25 13:05:00,
2013-01-25 06:06:00,38.0,31.1,30.22,North,360,0.0,0.0,76,0.00,,---,0.00,VWS V14.01,2013-01-25 13:06:00,
2013-01-25 06:10:00,38.1,31.2,30.23,North,360,0.0,0.0,76,0.00,,---,0.00,VWS V14.01,2013-01-25 13:10:00,
2013-01-25 06:11:00,38.2,31.3,30.23,North,360,0.0,0.0,76,0.00,,---,0.00,VWS V14.01,2013-01-25 13:11:00,
2013-01-25 06:15:00,38.1,30.9,30.23,North,360,0.0,0.0,75,0.00,,---,0.00,VWS V14.01,2013-01-25 13:15:00,
2013-01-25 06:16:00,38.2,31.0,30.23,North,360,0.0,0.0,75,0.00,,---,0.00,VWS V14.01,2013-01-25 13:16:00,
2013-01-25 06:21:00,37.9,30.7,30.23,North,360,0.0,0.0,75,0.00,,---,0.00,VWS V14.01,2013-01-25 13:21:00,
2013-01-25 06:25:00,37.9,30.7,30.23,North,360,0.0,0.0,75,0.00,,---,0.00,VWS V14.01,2013-01-25 13:25:00,
2013-01-25 06:26:00,37.8,30.6,30.22,North,360,0.0,0.0,75,0.00,,---,0.00,VWS V14.01,2013-01-25 13:26:00,
2013-01-25 06:30:00,37.8,30.6,30.23,North,360,0.0,0.0,75,0.00,,---,0.00,VWS V14.01,2013-01-25 13:30:00,
2013-01-25 06:31:00,37.7,30.8,30.23,North,360,0.0,0.0,76,0.00,,---,0.00,VWS V14.01,2013-01-25 13:31:00,
2013-01-25 06:35:00,37.6,30.7,30.22,North,360,0.0,0.0,76,0.00,,---,0.00,VWS V14.01,2013-01-25 13:35:00,
2013-01-25 06:36:00,37.5,30.6,30.22,North,360,0.0,0.0,76,0.00,,---,0.00,VWS V14.01,2013-01-25 13:36:00,
2013-01-25 06:40:00,37.4,30.5,30.22,North,360,0.0,0.0,76,0.00,,---,0.00,VWS V14.01,2013-01-25 13:40:00,
2013-01-25 06:41:00,37.2,30.4,30.22,North,360,0.0,0.0,76,0.00,,---,0.00,VWS V14.01,2013-01-25 13:41:00,
2013-01-25 06:45:00,37.0,30.1,30.23,North,360,0.0,0.0,76,0.00,,---,0.00,VWS V14.01,2013-01-25 13:45:00,
2013-01-25 06:46:00,36.8,30.3,30.23,North,360,0.0,0.0,77,0.00,,---,0.00,VWS V14.01,2013-01-25 13:46:00,
2013-01-25 06:50:00,36.5,30.0,30.23,North,360,0.0,0.0,77,0.00,,---,0.00,VWS V14.01,2013-01-25 13:50:00,
2013-01-25 06:51:00,36.3,29.8,30.24,North,360,0.0,0.0,77,0.00,,---,0.00,VWS V14.01,2013-01-25 13:51:00,
2013-01-25 06:55:00,36.0,29.5,30.24,North,360,0.0,0.0,77,0.00,,---,0.00,VWS V14.01,2013-01-25 13:55:00,
2013-01-25 06:56:00,36.0,29.8,30.24,North,360,0.0,0.0,78,0.00,,---,0.00,VWS V14.01,2013-01-25 13:56:00,
2013-01-25 07:00:00,35.9,29.7,30.24,North,360,0.0,0.0,78,0.00,,---,0.00,VWS V14.01,2013-01-25 14:00:00,
2013-01-25 07:01:00,36.0,29.8,30.24,North,360,0.0,0.0,78,0.00,,---,0.00,VWS V14.01,2013-01-25 14:01:00,
2013-01-25 07:05:00,36.0,29.8,30.24,North,360,0.0,0.0,78,0.00,,---,0.00,VWS V14.01,2013-01-25 14:05:00,
2013-01-25 07:06:00,36.0,29.8,30.24,North,360,0.0,0.0,78,0.00,,---,0.00,VWS V14.01,2013-01-25 14:06:00,
2013-01-25 07:10:00,36.4,30.2,30.23,North,360,0.0,0.0,78,0.00,,---,0.00,VWS V14.01,2013-01-25 14:10:00,
2013-01-25 07:11:00,36.6,30.4,30.23,North,360,0.0,0.0,78,0.00,,---,0.00,VWS V14.01,2013-01-25 14:11:00,
2013-01-25 07:15:00,36.9,30.4,30.23,North,360,0.0,0.0,77,0.00,,---,0.00,VWS V14.01,2013-01-25 14:15:00,
2013-01-25 07:16:00,37.1,30.6,30.23,North,360,0.0,0.0,77,0.00,,---,0.00,VWS V14.01,2013-01-25 14:16:00,
2013-01-25 07:20:00,37.3,30.4,30.23,North,360,0.0,0.0,76,0.00,,---,0.00,VWS V14.01,2013-01-25 14:20:00,
2013-01-25 07:21:00,37.2,30.0,30.23,North,360,0.0,0.0,75,0.00,,---,0.00,VWS V14.01,2013-01-25 14:21:00,
2013-01-25 07:25:00,37.2,30.0,30.23,North,360,0.0,0.0,75,0.00,,---,0.00,VWS V14.01,2013-01-25 14:25:00,
2013-01-25 07:26:00,37.2,30.0,30.23,North,360,0.0,0.0,75,0.00,,---,0.00,VWS V14.01,2013-01-25 14:26:00,
2013-01-25 07:30:00,37.0,29.8,30.23,North,360,0.0,0.0,75,0.00,,---,0.00,VWS V14.01,2013-01-25 14:30:00,
2013-01-25 07:31:00,37.1,29.9,30.23,North,360,0.0,0.0,75,0.00,,---,0.00,VWS V14.01,2013-01-25 14:31:00,
2013-01-25 07:35:00,37.1,29.6,30.22,North,360,0.0,0.0,74,0.00,,---,0.00,VWS V14.01,2013-01-25 14:35:00,
2013-01-25 07:36:00,37.1,29.9,30.22,North,360,0.0,0.0,75,0.00,,---,0.00,VWS V14.01,2013-01-25 14:36:00,
2013-01-25 07:40:00,37.2,29.7,30.22,North,360,0.0,0.0,74,0.00,,---,0.00,VWS V14.01,2013-01-25 14:40:00,
2013-01-25 07:41:00,37.3,29.8,30.22,North,360,0.0,0.0,74,0.00,,---,0.00,VWS V14.01,2013-01-25 14:41:00,
2013-01-25 07:45:00,37.4,29.9,30.22,North,360,0.0,0.0,74,0.00,,---,0.00,VWS V14.01,2013-01-25 14:45:00,
2013-01-25 07:46:00,37.3,29.5,30.23,North,360,0.0,0.0,73,0.00,,---,0.00,VWS V14.01,2013-01-25 14:46:00,
2013-01-25 07:50:00,37.3,29.5,30.23,North,360,0.0,0.0,73,0.00,,---,0.00,VWS V14.01,2013-01-25 14:50:00,
2013-01-25 07:51:00,37.3,29.8,30.24,North,360,0.0,0.0,74,0.00,,---,0.00,VWS V14.01,2013-01-25 14:51:00,
2013-01-25 07:55:00,37.3,29.8,30.24,North,360,0.0,0.0,74,0.00,,---,0.00,VWS V14.01,2013-01-25 14:55:00,
2013-01-25 07:56:00,37.6,30.1,30.24,North,360,0.0,0.0,74,0.00,,---,0.00,VWS V14.01,2013-01-25 14:56:00,
2013-01-25 08:01:00,38.6,30.0,30.24,North,360,0.0,0.0,71,0.00,,---,0.00,VWS V14.01,2013-01-25 15:01:00,
2013-01-25 08:05:00,39.1,29.8,30.24,North,360,0.0,2.0,69,0.00,,---,0.00,VWS V14.01,2013-01-25 15:05:00,
2013-01-25 08:06:00,39.3,29.6,30.24,North,360,0.0,1.0,68,0.00,,---,0.00,VWS V14.01,2013-01-25 15:06:00,
2013-01-25 08:10:00,39.7,29.7,30.24,North,360,0.0,1.0,67,0.00,,---,0.00,VWS V14.01,2013-01-25 15:10:00,
2013-01-25 08:11:00,39.8,29.8,30.24,NNW,348,0.0,2.0,67,0.00,,---,0.00,VWS V14.01,2013-01-25 15:11:00,
2013-01-25 08:15:00,40.2,29.8,30.25,NNW,348,0.0,2.0,66,0.00,,---,0.00,VWS V14.01,2013-01-25 15:15:00,
2013-01-25 08:16:00,40.4,30.0,30.25,NNW,348,0.0,0.0,66,0.00,,---,0.00,VWS V14.01,2013-01-25 15:16:00,
2013-01-25 08:20:00,40.6,29.4,30.25,NNW,348,0.0,0.0,64,0.00,,---,0.00,VWS V14.01,2013-01-25 15:20:00,
2013-01-25 08:21:00,40.7,29.5,30.25,NNW,348,0.0,0.0,64,0.00,,---,0.00,VWS V14.01,2013-01-25 15:21:00,
2013-01-25 08:26:00,41.1,29.5,30.25,NNW,348,0.0,2.0,63,0.00,,---,0.00,VWS V14.01,2013-01-25 15:26:00,
2013-01-25 08:30:00,41.2,29.6,30.25,NNW,348,0.0,2.0,63,0.00,,---,0.00,VWS V14.01,2013-01-25 15:30:00,
2013-01-25 08:31:00,41.4,29.8,30.25,NNW,348,0.0,0.0,63,0.00,,---,0.00,VWS V14.01,2013-01-25 15:31:00,
2013-01-25 08:35:00,41.8,29.8,30.25,NNW,348,1.0,1.0,62,0.00,,---,0.00,VWS V14.01,2013-01-25 15:35:00,
2013-01-25 08:36:00,42.1,30.0,30.25,NNW,348,1.0,2.0,62,0.00,,---,0.00,VWS V14.01,2013-01-25 15:36:00,
2013-01-25 08:41:00,42.6,30.1,30.26,NNW,348,0.0,1.0,61,0.00,,---,0.00,VWS V14.01,2013-01-25 15:41:00,
2013-01-25 08:45:00,42.9,30.0,30.25,NNW,345,0.0,2.0,60,0.00,,---,0.00,VWS V14.01,2013-01-25 15:45:00,
2013-01-25 08:46:00,43.1,30.2,30.25,NNW,345,0.0,2.0,60,0.00,,---,0.00,VWS V14.01,2013-01-25 15:46:00,
2013-01-25 08:50:00,43.4,30.0,30.26,NNW,345,0.0,2.0,59,0.00,,---,0.00,VWS V14.01,2013-01-25 15:50:00,
2013-01-25 08:51:00,43.5,30.1,30.25,NNW,345,0.0,1.0,59,0.00,,---,0.00,VWS V14.01,2013-01-25 15:51:00,
2013-01-25 08:55:00,43.8,30.0,30.26,NNW,345,0.0,1.0,58,0.00,,---,0.00,VWS V14.01,2013-01-25 15:55:00,
2013-01-25 08:56:00,43.9,30.1,30.25,NNW,345,0.0,0.0,58,0.00,,---,0.00,VWS V14.01,2013-01-25 15:56:00,
2013-01-25 09:00:00,44.2,30.4,30.25,NNW,345,1.0,1.0,58,0.00,,---,0.00,VWS V14.01,2013-01-25 16:00:00,
2013-01-25 09:01:00,44.3,30.0,30.25,North,360,0.0,2.0,57,0.00,,---,0.00,VWS V14.01,2013-01-25 16:01:00,
2013-01-25 09:05:00,44.4,30.1,30.25,NNE,13,0.0,2.0,57,0.00,,---,0.00,VWS V14.01,2013-01-25 16:05:00,
2013-01-25 09:06:00,44.5,30.2,30.25,NNE,13,0.0,1.0,57,0.00,,---,0.00,VWS V14.01,2013-01-25 16:06:00,
2013-01-25 09:11:00,44.9,30.2,30.25,NNE,13,0.0,2.0,56,0.00,,---,0.00,VWS V14.01,2013-01-25 16:11:00,
2013-01-25 09:15:00,45.3,30.5,30.24,NNE,13,0.0,2.0,56,0.00,,---,0.00,VWS V14.01,2013-01-25 16:15:00,
2013-01-25 09:16:00,45.4,30.2,30.25,NNE,13,0.0,1.0,55,0.00,,---,0.00,VWS V14.01,2013-01-25 16:16:00,
2013-01-25 09:20:00,45.7,30.0,30.25,NNE,13,0.0,1.0,54,0.00,,---,0.00,VWS V14.01,2013-01-25 16:20:00,
2013-01-25 09:21:00,45.9,30.2,30.25,NNE,13,0.0,0.0,54,0.00,,---,0.00,VWS V14.01,2013-01-25 16:21:00,
2013-01-25 09:25:00,46.3,30.6,30.24,NE,49,2.0,3.0,54,0.00,,---,0.00,VWS V14.01,2013-01-25 16:25:00,
2013-01-25 09:26:00,46.5,30.3,30.24,ENE,57,0.0,2.0,53,0.00,,---,0.00,VWS V14.01,2013-01-25 16:26:00,
2013-01-25 09:30:00,46.7,30.0,30.24,ENE,57,0.0,2.0,52,0.00,,---,0.00,VWS V14.01,2013-01-25 16:30:00,
2013-01-25 09:31:00,46.7,30.0,30.24,ENE,57,0.0,1.0,52,0.00,,---,0.00,VWS V14.01,2013-01-25 16:31:00,
2013-01-25 09:35:00,47.2,30.5,30.24,ENE,57,1.0,2.0,52,0.00,,---,0.00,VWS V14.01,2013-01-25 16:35:00,
2013-01-25 09:36:00,47.4,30.7,30.24,ENE,57,0.0,1.0,52,0.00,,---,0.00,VWS V14.01,2013-01-25 16:36:00,
2013-01-25 09:40:00,47.5,30.3,30.24,North,349,0.0,2.0,51,0.00,,---,0.00,VWS V14.01,2013-01-25 16:40:00,
2013-01-25 09:41:00,47.8,30.6,30.24,North,349,0.0,2.0,51,0.00,,---,0.00,VWS V14.01,2013-01-25 16:41:00,
2013-01-25 09:45:00,48.3,30.5,30.24,NNE,13,3.0,3.0,50,0.00,,---,0.00,VWS V14.01,2013-01-25 16:45:00,
2013-01-25 09:46:00,48.5,30.7,30.24,North,5,4.0,4.0,50,0.00,,---,0.00,VWS V14.01,2013-01-25 16:46:00,
2013-01-25 09:51:00,48.7,30.9,30.25,NNW,338,3.0,3.0,50,0.00,,---,0.00,VWS V14.01,2013-01-25 16:51:00,
2013-01-25 09:56:00,49.4,31.6,30.25,NNW,338,0.0,1.0,50,0.00,,---,0.00,VWS V14.01,2013-01-25 16:56:00,
2013-01-25 10:00:00,50.1,31.7,30.25,NNW,338,1.0,1.0,49,0.00,,---,0.00,VWS V14.01,2013-01-25 17:00:00,
2013-01-25 10:01:00,50.2,31.3,30.25,NNW,338,0.0,1.0,48,0.00,,---,0.00,VWS V14.01,2013-01-25 17:01:00,
2013-01-25 10:05:00,50.8,31.8,30.24,North,5,1.0,2.0,48,0.00,,---,0.00,VWS V14.01,2013-01-25 17:05:00,
2013-01-25 10:06:00,51.0,32.5,30.24,NNW,341,1.0,3.0,49,0.00,,---,0.00,VWS V14.01,2013-01-25 17:06:00,
2013-01-25 10:10:00,51.1,32.6,30.24,NNE,23,1.0,3.0,49,0.00,,---,0.00,VWS V14.01,2013-01-25 17:10:00,
2013-01-25 10:11:00,51.2,32.2,30.24,NNE,23,0.0,1.0,48,0.00,,---,0.00,VWS V14.01,2013-01-25 17:11:00,
2013-01-25 10:15:00,51.1,32.6,30.24,NNE,17,1.0,2.0,49,0.00,,---,0.00,VWS V14.01,2013-01-25 17:15:00,
2013-01-25 10:16:00,51.1,32.1,30.24,North,5,1.0,3.0,48,0.00,,---,0.00,VWS V14.01,2013-01-25 17:16:00,
2013-01-25 10:20:00,51.0,32.5,30.23,NNW,346,2.0,4.0,49,0.00,,---,0.00,VWS V14.01,2013-01-25 17:20:00,
2013-01-25 10:21:00,51.0,33.0,30.23,NNW,340,2.0,3.0,50,0.00,,---,0.00,VWS V14.01,2013-01-25 17:21:00,
2013-01-25 10:25:00,51.2,33.7,30.23,NNW,327,1.0,3.0,51,0.00,,---,0.00,VWS V14.01,2013-01-25 17:25:00,
2013-01-25 10:26:00,51.3,33.8,30.23,NNW,331,2.0,2.0,51,0.00,,---,0.00,VWS V14.01,2013-01-25 17:26:00,
2013-01-25 10:30:00,51.3,33.3,30.24,NNW,333,1.0,4.0,50,0.00,,---,0.00,VWS V14.01,2013-01-25 17:30:00,
2013-01-25 10:31:00,51.3,33.8,30.24,NNW,333,2.0,3.0,51,0.00,,---,0.00,VWS V14.01,2013-01-25 17:31:00,
2013-01-25 10:35:00,51.4,34.4,30.24,NNW,336,1.0,3.0,52,0.00,,---,0.00,VWS V14.01,2013-01-25 17:35:00,
2013-01-25 10:36:00,51.7,34.2,30.24,West,271,0.0,1.0,51,0.00,,---,0.00,VWS V14.01,2013-01-25 17:36:00,
2013-01-25 10:40:00,51.9,34.8,30.24,NNW,338,2.0,3.0,52,0.00,,---,0.00,VWS V14.01,2013-01-25 17:40:00,
2013-01-25 10:41:00,51.9,34.8,30.24,West,266,1.0,3.0,52,0.00,,---,0.00,VWS V14.01,2013-01-25 17:41:00,
2013-01-25 10:46:00,51.9,35.3,30.24,NNW,339,2.0,3.0,53,0.00,,---,0.00,VWS V14.01,2013-01-25 17:46:00,
2013-01-25 10:50:00,51.9,35.3,30.24,NNW,331,2.0,4.0,53,0.00,,---,0.00,VWS V14.01,2013-01-25 17:50:00,
2013-01-25 10:51:00,51.9,35.3,30.24,WNW,294,1.0,2.0,53,0.00,,---,0.00,VWS V14.01,2013-01-25 17:51:00,
2013-01-25 10:55:00,51.8,35.2,30.24,WNW,300,0.0,2.0,53,0.00,,---,0.00,VWS V14.01,2013-01-25 17:55:00,
2013-01-25 10:56:00,51.8,35.2,30.24,NW,317,2.0,3.0,53,0.00,,---,0.00,VWS V14.01,2013-01-25 17:56:00,
2013-01-25 11:01:00,52.0,35.4,30.24,NNW,338,0.0,3.0,53,0.00,,---,0.00,VWS V14.01,2013-01-25 18:01:00,
2013-01-25 11:05:00,52.3,35.2,30.24,NNW,328,1.0,3.0,52,0.00,,---,0.00,VWS V14.01,2013-01-25 18:05:00,
2013-01-25 11:06:00,52.3,35.2,30.24,NW,312,1.0,2.0,52,0.00,,---,0.00,VWS V14.01,2013-01-25 18:06:00,
2013-01-25 11:10:00,52.3,35.2,30.24,NW,312,1.0,2.0,52,0.00,,---,0.00,VWS V14.01,2013-01-25 18:10:00,
2013-01-25 11:11:00,52.2,35.1,30.24,NW,317,0.0,2.0,52,0.00,,---,0.00,VWS V14.01,2013-01-25 18:11:00,
2013-01-25 11:15:00,52.3,35.2,30.24,WNW,286,0.0,2.0,52,0.00,,---,0.00,VWS V14.01,2013-01-25 18:15:00,
2013-01-25 11:16:00,52.4,35.3,30.23,NNW,345,2.0,2.0,52,0.00,,---,0.00,VWS V14.01,2013-01-25 18:16:00,
2013-01-25 11:20:00,52.6,35.5,30.23,NNW,338,1.0,3.0,52,0.00,,---,0.00,VWS V14.01,2013-01-25 18:20:00,
2013-01-25 11:21:00,52.7,35.6,30.23,NNW,337,0.0,3.0,52,0.00,,---,0.00,VWS V14.01,2013-01-25 18:21:00,
2013-01-25 11:25:00,52.8,35.7,30.22,NW,325,0.0,4.0,52,0.00,,---,0.00,VWS V14.01,2013-01-25 18:25:00,
2013-01-25 11:26:00,52.8,35.7,30.22,NW,325,0.0,0.0,52,0.00,,---,0.00,VWS V14.01,2013-01-25 18:26:00,
2013-01-25 11:30:00,53.1,35.5,30.22,NW,326,0.0,2.0,51,0.00,,---,0.00,VWS V14.01,2013-01-25 18:30:00,
2013-01-25 11:31:00,53.0,35.4,30.22,NW,326,0.0,1.0,51,0.00,,---,0.00,VWS V14.01,2013-01-25 18:31:00,
2013-01-25 11:36:00,53.2,36.0,30.21,NW,311,1.0,1.0,52,0.00,,---,0.00,VWS V14.01,2013-01-25 18:36:00,
2013-01-25 11:40:00,53.1,36.0,30.21,NNW,335,4.0,4.0,52,0.00,,---,0.00,VWS V14.01,2013-01-25 18:40:00,
2013-01-25 11:41:00,53.0,35.9,30.21,North,350,0.0,4.0,52,0.00,,---,0.00,VWS V14.01,2013-01-25 18:41:00,
2013-01-25 11:45:00,53.0,35.9,30.20,WNW,283,0.0,4.0,52,0.00,,---,0.00,VWS V14.01,2013-01-25 18:45:00,
2013-01-25 11:46:00,53.0,36.3,30.20,SSE,167,1.0,1.0,53,0.00,,---,0.00,VWS V14.01,2013-01-25 18:46:00,
2013-01-25 11:50:00,53.3,36.6,30.20,West,269,0.0,2.0,53,0.00,,---,0.00,VWS V14.01,2013-01-25 18:50:00,
2013-01-25 11:51:00,53.2,36.5,30.20,WNW,291,1.0,2.0,53,0.00,,---,0.00,VWS V14.01,2013-01-25 18:51:00,
2013-01-25 11:55:00,53.2,36.5,30.20,NNW,328,0.0,2.0,53,0.00,,---,0.00,VWS V14.01,2013-01-25 18:55:00,
2013-01-25 11:56:00,53.5,36.8,30.20,NW,321,0.0,3.0,53,0.00,,---,0.00,VWS V14.01,2013-01-25 18:56:00,
2013-01-25 12:00:00,53.4,36.2,30.19,NW,318,0.0,3.0,52,0.00,,---,0.00,VWS V14.01,2013-01-25 19:00:00,
2013-01-25 12:01:00,53.4,36.2,30.19,NW,319,0.0,2.0,52,0.00,,---,0.00,VWS V14.01,2013-01-25 19:01:00,
2013-01-25 12:05:00,53.4,36.2,30.19,North,5,1.0,3.0,52,0.00,,---,0.00,VWS V14.01,2013-01-25 19:05:00,
2013-01-25 12:06:00,53.7,36.5,30.19,North,355,0.0,4.0,52,0.00,,---,0.00,VWS V14.01,2013-01-25 19:06:00,
2013-01-25 12:10:00,54.2,37.0,30.19,WNW,282,0.0,4.0,52,0.00,,---,0.00,VWS V14.01,2013-01-25 19:10:00,
2013-01-25 12:11:00,54.2,36.5,30.18,NW,304,1.0,2.0,51,0.00,,---,0.00,VWS V14.01,2013-01-25 19:11:00,
2013-01-25 12:16:00,54.1,36.9,30.18,WNW,294,0.0,1.0,52,0.00,,---,0.00,VWS V14.01,2013-01-25 19:16:00,
2013-01-25 12:21:00,54.5,36.8,30.18,WNW,294,0.0,1.0,51,0.00,,---,0.00,VWS V14.01,2013-01-25 19:21:00,
2013-01-25 12:25:00,55.0,35.7,30.17,NNW,347,2.0,4.0,48,0.00,,---,0.00,VWS V14.01,2013-01-25 19:25:00,
2013-01-25 12:26:00,54.8,36.0,30.17,North,355,0.0,2.0,49,0.00,,---,0.00,VWS V14.01,2013-01-25 19:26:00,
2013-01-25 12:30:00,54.6,35.8,30.17,NNW,346,1.0,3.0,49,0.00,,---,0.00,VWS V14.01,2013-01-25 19:30:00,
2013-01-25 12:31:00,54.6,36.3,30.17,NNW,346,0.0,2.0,50,0.00,,---,0.00,VWS V14.01,2013-01-25 19:31:00,
2013-01-25 12:35:00,54.5,35.8,30.17,NNW,346,0.0,2.0,49,0.00,,---,0.00,VWS V14.01,2013-01-25 19:35:00,
2013-01-25 12:36:00,54.5,35.8,30.17,NNW,346,0.0,1.0,49,0.00,,---,0.00,VWS V14.01,2013-01-25 19:36:00,
2013-01-25 12:40:00,54.6,35.8,30.17,North,355,2.0,4.0,49,0.00,,---,0.00,VWS V14.01,2013-01-25 19:40:00,
2013-01-25 12:41:00,54.4,35.7,30.16,North,360,0.0,3.0,49,0.00,,---,0.00,VWS V14.01,2013-01-25 19:41:00,
2013-01-25 12:45:00,54.5,36.3,30.16,NNW,328,2.0,3.0,50,0.00,,---,0.00,VWS V14.01,2013-01-25 19:45:00,
2013-01-25 12:46:00,54.3,36.1,30.16,WNW,294,1.0,3.0,50,0.00,,---,0.00,VWS V14.01,2013-01-25 19:46:00,
2013-01-25 12:50:00,54.0,36.3,30.16,NNW,337,1.0,3.0,51,0.00,,---,0.00,VWS V14.01,2013-01-25 19:50:00,
2013-01-25 12:51:00,54.1,36.4,30.16,NNW,338,0.0,2.0,51,0.00,,---,0.00,VWS V14.01,2013-01-25 19:51:00,
2013-01-25 12:55:00,54.5,36.8,30.16,WSW,249,1.0,3.0,51,0.00,,---,0.00,VWS V14.01,2013-01-25 19:55:00,
2013-01-25 12:56:00,54.5,36.8,30.16,NW,326,2.0,2.0,51,0.00,,---,0.00,VWS V14.01,2013-01-25 19:56:00,
2013-01-25 13:00:00,54.5,36.8,30.16,WNW,292,0.0,0.0,51,0.00,,---,0.00,VWS V14.01,2013-01-25 20:00:00,
2013-01-25 13:05:00,55.1,36.8,30.16,WNW,286,2.0,2.0,50,0.00,,---,0.00,VWS V14.01,2013-01-25 20:05:00,
2013-01-25 13:10:00,54.6,36.8,30.15,NW,317,2.0,3.0,51,0.00,,---,0.00,VWS V14.01,2013-01-25 20:10:00,
2013-01-25 13:11:00,54.4,36.7,30.15,WSW,250,3.0,4.0,51,0.00,,---,0.00,VWS V14.01,2013-01-25 20:11:00,
2013-01-25 13:15:00,54.4,37.2,30.15,West,269,0.0,4.0,52,0.00,,---,0.00,VWS V14.01,2013-01-25 20:15:00,
2013-01-25 13:16:00,54.4,37.2,30.15,WNW,298,1.0,1.0,52,0.00,,---,0.00,VWS V14.01,2013-01-25 20:16:00,
2013-01-25 13:20:00,55.1,37.8,30.15,West,269,3.0,3.0,52,0.00,,---,0.00,VWS V14.01,2013-01-25 20:20:00,
2013-01-25 13:25:00,54.9,37.6,30.15,West,265,2.0,3.0,52,0.00,,---,0.00,VWS V14.01,2013-01-25 20:25:00,
2013-01-25 13:30:00,54.3,37.5,30.15,South,191,0.0,0.0,53,0.00,,---,0.00,VWS V14.01,2013-01-25 20:30:00,
2013-01-25 13:35:00,55.1,37.8,30.14,WSW,238,2.0,4.0,52,0.00,,---,0.00,VWS V14.01,2013-01-25 20:35:00,
2013-01-25 13:40:00,55.1,37.8,30.14,SSW,197,1.0,3.0,52,0.00,,---,0.00,VWS V14.01,2013-01-25 20:40:00,
2013-01-25 13:45:00,55.0,37.7,30.13,SW,221,0.0,0.0,52,0.00,,---,0.00,VWS V14.01,2013-01-25 20:45:00,
2013-01-25 13:50:00,55.9,38.0,30.13,West,277,0.0,1.0,51,0.00,,---,0.00,VWS V14.01,2013-01-25 20:50:00,
2013-01-25 13:55:00,55.7,37.4,30.13,WNW,292,2.0,2.0,50,0.00,,---,0.00,VWS V14.01,2013-01-25 20:55:00,
2013-01-25 14:00:00,55.8,38.0,30.13,NW,324,1.0,3.0,51,0.00,,---,0.00,VWS V14.01,2013-01-25 21:00:00,
2013-01-25 14:05:00,56.3,37.9,30.13,SW,220,2.0,4.0,50,0.00,,---,0.00,VWS V14.01,2013-01-25 21:05:00,
2013-01-25 14:10:00,56.2,38.3,30.13,SW,220,5.0,5.0,51,0.00,,---,0.00,VWS V14.01,2013-01-25 21:10:00,
2013-01-25 14:15:00,56.0,38.6,30.13,WSW,257,2.0,3.0,52,0.00,,---,0.00,VWS V14.01,2013-01-25 21:15:00,
2013-01-25 14:20:00,55.9,38.0,30.12,SSW,211,4.0,4.0,51,0.00,,---,0.00,VWS V14.01,2013-01-25 21:20:00,
2013-01-25 14:25:00,55.8,38.5,30.12,SW,234,2.0,3.0,52,0.00,,---,0.00,VWS V14.01,2013-01-25 21:25:00,
2013-01-25 14:30:00,56.4,38.5,30.12,NW,312,2.0,2.0,51,0.00,,---,0.00,VWS V14.01,2013-01-25 21:30:00,
2013-01-25 14:35:00,56.4,38.5,30.12,WNW,301,1.0,2.0,51,0.00,,---,0.00,VWS V14.01,2013-01-25 21:35:00,
2013-01-25 14:40:00,56.4,38.0,30.12,West,281,0.0,1.0,50,0.00,,---,0.00,VWS V14.01,2013-01-25 21:40:00,
2013-01-25 14:45:00,56.6,38.7,30.13,West,275,0.0,2.0,51,0.00,,---,0.00,VWS V14.01,2013-01-25 21:45:00,
2013-01-25 14:50:00,56.6,38.7,30.12,NW,315,2.0,2.0,51,0.00,,---,0.00,VWS V14.01,2013-01-25 21:50:00,
2013-01-25 14:55:00,56.6,38.7,30.12,WSW,240,0.0,1.0,51,0.00,,---,0.00,VWS V14.01,2013-01-25 21:55:00,
2013-01-25 15:00:00,56.4,39.0,30.12,NNW,343,2.0,3.0,52,0.00,,---,0.00,VWS V14.01,2013-01-25 22:00:00,
2013-01-25 15:05:00,57.4,38.9,30.12,North,360,0.0,1.0,50,0.00,,---,0.00,VWS V14.01,2013-01-25 22:05:00,
2013-01-25 15:10:00,57.6,39.1,30.11,WNW,288,2.0,2.0,50,0.00,,---,0.00,VWS V14.01,2013-01-25 22:10:00,
2013-01-25 15:15:00,57.6,39.1,30.12,SW,221,1.0,3.0,50,0.00,,---,0.00,VWS V14.01,2013-01-25 22:15:00,
2013-01-25 15:20:00,57.6,39.1,30.12,North,5,3.0,3.0,50,0.00,,---,0.00,VWS V14.01,2013-01-25 22:20:00,
2013-01-25 15:25:00,57.7,38.7,30.11,North,5,3.0,3.0,49,0.00,,---,0.00,VWS V14.01,2013-01-25 22:25:00,
2013-01-25 15:30:00,57.6,38.6,30.11,NNW,346,1.0,3.0,49,0.00,,---,0.00,VWS V14.01,2013-01-25 22:30:00,
2013-01-25 15:35:00,57.0,38.6,30.11,NNW,333,0.0,2.0,50,0.00,,---,0.00,VWS V14.01,2013-01-25 22:35:00,
2013-01-25 15:40:00,56.8,38.9,30.11,NNW,335,1.0,1.0,51,0.00,,---,0.00,VWS V14.01,2013-01-25 22:40:00,
2013-01-25 15:45:00,57.0,39.1,30.11,NNW,336,1.0,1.0,51,0.00,,---,0.00,VWS V14.01,2013-01-25 22:45:00,
2013-01-25 15:50:00,57.2,38.8,30.11,WNW,287,0.0,4.0,50,0.00,,---,0.00,VWS V14.01,2013-01-25 22:50:00,
2013-01-25 15:55:00,57.4,38.9,30.11,West,279,0.0,2.0,50,0.00,,---,0.00,VWS V14.01,2013-01-25 22:55:00,
2013-01-25 16:00:00,57.5,39.0,30.11,West,279,1.0,1.0,50,0.00,,---,0.00,VWS V14.01,2013-01-25 23:00:00,
2013-01-25 16:05:00,57.2,38.8,30.11,West,281,0.0,1.0,50,0.00,,---,0.00,VWS V14.01,2013-01-25 23:05:00,
2013-01-25 16:10:00,57.5,38.5,30.10,NNW,327,0.0,2.0,49,0.00,,---,0.00,VWS V14.01,2013-01-25 23:10:00,
2013-01-25 16:15:00,56.9,38.5,30.10,NNW,328,2.0,3.0,50,0.00,,---,0.00,VWS V14.01,2013-01-25 23:15:00,
2013-01-25 16:20:00,56.7,38.8,30.10,NNW,328,0.0,0.0,51,0.00,,---,0.00,VWS V14.01,2013-01-25 23:20:00,
2013-01-25 16:25:00,56.7,38.8,30.10,NNW,344,1.0,2.0,51,0.00,,---,0.00,VWS V14.01,2013-01-25 23:25:00,
2013-01-25 16:30:00,56.5,38.6,30.10,NNW,348,0.0,1.0,51,0.00,,---,0.00,VWS V14.01,2013-01-25 23:30:00,
2013-01-25 16:35:00,56.5,38.6,30.10,NNW,348,0.0,0.0,51,0.00,,---,0.00,VWS V14.01,2013-01-25 23:35:00,
2013-01-25 16:40:00,56.5,38.6,30.10,NNW,348,0.0,0.0,51,0.00,,---,0.00,VWS V14.01,2013-01-25 23:40:00,
2013-01-25 16:45:00,56.2,38.8,30.10,NNW,348,0.0,0.0,52,0.00,,---,0.00,VWS V14.01,2013-01-25 23:45:00,
2013-01-25 16:50:00,56.0,38.6,30.10,NNW,348,1.0,2.0,52,0.00,,---,0.00,VWS V14.01,2013-01-25 23:50:00,
2013-01-25 16:55:00,55.8,38.5,30.10,NNW,348,0.0,0.0,52,0.00,,---,0.00,VWS V14.01,2013-01-25 23:55:00,
2013-01-25 17:00:00,55.4,38.6,30.10,NNW,348,0.0,1.0,53,0.00,,---,0.00,VWS V14.01,2013-01-26 00:00:00,
2013-01-25 17:05:00,55.0,38.2,30.10,NNW,348,0.0,0.0,53,0.00,,---,0.00,VWS V14.01,2013-01-26 00:05:00,
2013-01-25 17:10:00,54.9,38.6,30.10,NNW,348,0.0,0.0,54,0.00,,---,0.00,VWS V14.01,2013-01-26 00:10:00,
2013-01-25 17:15:00,54.6,38.3,30.10,NNW,348,0.0,0.0,54,0.00,,---,0.00,VWS V14.01,2013-01-26 00:15:00,
2013-01-25 17:20:00,54.3,38.5,30.10,NNW,348,0.0,0.0,55,0.00,,---,0.00,VWS V14.01,2013-01-26 00:20:00,
2013-01-25 17:25:00,54.0,38.2,30.10,NNW,348,0.0,0.0,55,0.00,,---,0.00,VWS V14.01,2013-01-26 00:25:00,
2013-01-25 17:30:00,53.6,37.8,30.10,NNW,348,0.0,0.0,55,0.00,,---,0.00,VWS V14.01,2013-01-26 00:30:00,
2013-01-25 17:35:00,53.1,38.3,30.10,NNW,348,0.0,0.0,57,0.00,,---,0.00,VWS V14.01,2013-01-26 00:35:00,
2013-01-25 17:40:00,52.6,38.3,30.10,NNW,348,0.0,0.0,58,0.00,,---,0.00,VWS V14.01,2013-01-26 00:40:00,
2013-01-25 17:45:00,52.2,38.3,30.10,NNW,348,0.0,0.0,59,0.00,,---,0.00,VWS V14.01,2013-01-26 00:45:00,
2013-01-25 17:50:00,52.1,38.2,30.10,NNW,348,0.0,0.0,59,0.00,,---,0.00,VWS V14.01,2013-01-26 00:50:00,
2013-01-25 17:55:00,51.8,38.4,30.10,NNW,348,0.0,0.0,60,0.00,,---,0.00,VWS V14.01,2013-01-26 00:55:00,
2013-01-25 18:00:00,51.7,38.3,30.11,NNW,348,0.0,0.0,60,0.00,,---,0.00,VWS V14.01,2013-01-26 01:00:00,
2013-01-25 18:05:00,51.6,38.2,30.11,NNW,348,0.0,0.0,60,0.00,,---,0.00,VWS V14.01,2013-01-26 01:05:00,
2013-01-25 18:10:00,51.6,38.2,30.11,NNW,348,0.0,0.0,60,0.00,,---,0.00,VWS V14.01,2013-01-26 01:10:00,
2013-01-25 18:15:00,51.9,38.5,30.11,NNW,348,0.0,0.0,60,0.00,,---,0.00,VWS V14.01,2013-01-26 01:15:00,
2013-01-25 18:20:00,51.8,37.9,30.11,NNW,348,0.0,0.0,59,0.00,,---,0.00,VWS V14.01,2013-01-26 01:20:00,
2013-01-25 18:25:00,51.7,38.3,30.11,NNW,348,0.0,0.0,60,0.00,,---,0.00,VWS V14.01,2013-01-26 01:25:00,
2013-01-25 18:30:00,51.7,38.3,30.11,NNW,348,0.0,0.0,60,0.00,,---,0.00,VWS V14.01,2013-01-26 01:30:00,
2013-01-25 18:35:00,51.5,38.5,30.11,North,349,0.0,0.0,61,0.00,,---,0.00,VWS V14.01,2013-01-26 01:35:00,
2013-01-25 18:40:00,51.2,38.2,30.11,North,349,0.0,0.0,61,0.00,,---,0.00,VWS V14.01,2013-01-26 01:40:00,
2013-01-25 18:45:00,51.3,38.3,30.11,North,349,0.0,0.0,61,0.00,,---,0.00,VWS V14.01,2013-01-26 01:45:00,
2013-01-25 18:50:00,51.5,38.1,30.11,North,349,0.0,0.0,60,0.00,,---,0.00,VWS V14.01,2013-01-26 01:50:00,
2013-01-25 18:55:00,51.4,38.0,30.11,North,349,0.0,0.0,60,0.00,,---,0.00,VWS V14.01,2013-01-26 01:55:00,
2013-01-25 19:00:00,51.4,38.4,30.12,North,349,0.0,0.0,61,0.00,,---,0.00,VWS V14.01,2013-01-26 02:00:00,
2013-01-25 19:05:00,51.3,37.9,30.12,North,349,0.0,0.0,60,0.00,,---,0.00,VWS V14.01,2013-01-26 02:05:00,
2013-01-25 19:10:00,51.3,38.3,30.12,North,349,0.0,0.0,61,0.00,,---,0.00,VWS V14.01,2013-01-26 02:10:00,
2013-01-25 19:15:00,51.1,37.7,30.12,North,349,0.0,0.0,60,0.00,,---,0.00,VWS V14.01,2013-01-26 02:15:00,
2013-01-25 19:20:00,50.8,37.8,30.12,North,349,0.0,0.0,61,0.00,,---,0.00,VWS V14.01,2013-01-26 02:20:00,
2013-01-25 19:25:00,50.7,37.8,30.12,North,349,0.0,0.0,61,0.00,,---,0.00,VWS V14.01,2013-01-26 02:25:00,
2013-01-25 19:30:00,50.6,37.7,30.12,North,349,0.0,0.0,61,0.00,,---,0.00,VWS V14.01,2013-01-26 02:30:00,
2013-01-25 19:35:00,50.8,38.3,30.12,North,349,0.0,0.0,62,0.00,,---,0.00,VWS V14.01,2013-01-26 02:35:00,
2013-01-25 19:40:00,50.8,37.8,30.12,North,349,0.0,0.0,61,0.00,,---,0.00,VWS V14.01,2013-01-26 02:40:00,
2013-01-25 19:45:00,50.9,38.4,30.12,North,349,0.0,0.0,62,0.00,,---,0.00,VWS V14.01,2013-01-26 02:45:00,
2013-01-25 19:50:00,50.7,38.2,30.12,North,349,0.0,0.0,62,0.00,,---,0.00,VWS V14.01,2013-01-26 02:50:00,
2013-01-25 19:55:00,50.7,38.2,30.12,North,349,0.0,0.0,62,0.00,,---,0.00,VWS V14.01,2013-01-26 02:55:00,
2013-01-25 20:00:00,50.5,38.0,30.12,North,349,0.0,0.0,62,0.00,,---,0.00,VWS V14.01,2013-01-26 03:00:00,
2013-01-25 20:05:00,50.5,38.0,30.12,North,349,0.0,0.0,62,0.00,,---,0.00,VWS V14.01,2013-01-26 03:05:00,
2013-01-25 20:10:00,50.5,38.0,30.12,North,349,0.0,0.0,62,0.00,,---,0.00,VWS V14.01,2013-01-26 03:10:00,
2013-01-25 20:15:00,50.5,38.0,30.12,North,349,0.0,0.0,62,0.00,,---,0.00,VWS V14.01,2013-01-26 03:15:00,
2013-01-25 20:20:00,50.5,38.0,30.11,North,349,0.0,0.0,62,0.00,,---,0.00,VWS V14.01,2013-01-26 03:20:00,
2013-01-25 20:25:00,50.5,37.6,30.11,North,349,0.0,0.0,61,0.00,,---,0.00,VWS V14.01,2013-01-26 03:25:00,
2013-01-25 20:30:00,50.3,37.8,30.11,North,349,0.0,0.0,62,0.00,,---,0.00,VWS V14.01,2013-01-26 03:30:00,
2013-01-25 20:35:00,50.1,37.6,30.12,North,349,0.0,0.0,62,0.00,,---,0.00,VWS V14.01,2013-01-26 03:35:00,
2013-01-25 20:40:00,50.1,37.6,30.12,North,349,0.0,0.0,62,0.00,,---,0.00,VWS V14.01,2013-01-26 03:40:00,
2013-01-25 20:45:00,50.0,37.5,30.12,North,349,0.0,0.0,62,0.00,,---,0.00,VWS V14.01,2013-01-26 03:45:00,
2013-01-25 20:50:00,49.9,37.4,30.12,North,349,0.0,0.0,62,0.00,,---,0.00,VWS V14.01,2013-01-26 03:50:00,
2013-01-25 20:55:00,49.5,37.4,30.12,North,349,0.0,0.0,63,0.00,,---,0.00,VWS V14.01,2013-01-26 03:55:00,
2013-01-25 21:00:00,49.4,37.8,30.12,North,349,0.0,0.0,64,0.00,,---,0.00,VWS V14.01,2013-01-26 04:00:00,
2013-01-25 21:05:00,49.6,37.5,30.12,North,349,0.0,0.0,63,0.00,,---,0.00,VWS V14.01,2013-01-26 04:05:00,
2013-01-25 21:10:00,49.6,37.5,30.12,North,349,0.0,0.0,63,0.00,,---,0.00,VWS V14.01,2013-01-26 04:10:00,
2013-01-25 21:15:00,49.5,37.4,30.12,North,349,0.0,0.0,63,0.00,,---,0.00,VWS V14.01,2013-01-26 04:15:00,
2013-01-25 21:20:00,49.5,37.4,30.12,North,349,0.0,0.0,63,0.00,,---,0.00,VWS V14.01,2013-01-26 04:20:00,
2013-01-25 21:25:00,49.4,37.8,30.12,North,349,0.0,0.0,64,0.00,,---,0.00,VWS V14.01,2013-01-26 04:25:00,
2013-01-25 21:30:00,49.0,37.0,30.13,North,349,0.0,0.0,63,0.00,,---,0.00,VWS V14.01,2013-01-26 04:30:00,
2013-01-25 21:35:00,48.3,37.1,30.13,North,349,0.0,0.0,65,0.00,,---,0.00,VWS V14.01,2013-01-26 04:35:00,
2013-01-25 21:40:00,47.8,37.4,30.13,North,349,0.0,0.0,67,0.00,,---,0.00,VWS V14.01,2013-01-26 04:40:00,
2013-01-25 21:45:00,47.7,36.9,30.12,North,349,0.0,0.0,66,0.00,,---,0.00,VWS V14.01,2013-01-26 04:45:00,
2013-01-25 21:50:00,47.4,37.0,30.13,North,349,0.0,0.0,67,0.00,,---,0.00,VWS V14.01,2013-01-26 04:50:00,
2013-01-25 21:55:00,47.1,36.7,30.13,North,349,0.0,0.0,67,0.00,,---,0.00,VWS V14.01,2013-01-26 04:55:00,
2013-01-25 22:00:00,47.0,37.0,30.12,North,349,0.0,0.0,68,0.00,,---,0.00,VWS V14.01,2013-01-26 05:00:00,
2013-01-25 22:01:00,47.0,37.0,30.12,North,349,0.0,0.0,68,0.00,,---,0.00,VWS V14.01,2013-01-26 05:01:00,
2013-01-25 22:06:00,47.2,37.2,30.12,North,349,0.0,0.0,68,0.00,,---,0.00,VWS V14.01,2013-01-26 05:06:00,
2013-01-25 22:10:00,47.1,37.1,30.12,North,349,0.0,0.0,68,0.00,,---,0.00,VWS V14.01,2013-01-26 05:10:00,
2013-01-25 22:11:00,47.0,37.0,30.12,North,349,0.0,0.0,68,0.00,,---,0.00,VWS V14.01,2013-01-26 05:11:00,
2013-01-25 22:15:00,46.9,36.9,30.12,North,349,0.0,0.0,68,0.00,,---,0.00,VWS V14.01,2013-01-26 05:15:00,
2013-01-25 22:16:00,46.8,36.8,30.12,North,349,0.0,0.0,68,0.00,,---,0.00,VWS V14.01,2013-01-26 05:16:00,
2013-01-25 22:20:00,46.7,37.1,30.12,North,349,0.0,0.0,69,0.00,,---,0.00,VWS V14.01,2013-01-26 05:20:00,
2013-01-25 22:21:00,46.7,37.1,30.12,North,349,0.0,0.0,69,0.00,,---,0.00,VWS V14.01,2013-01-26 05:21:00,
2013-01-25 22:25:00,46.7,37.1,30.12,North,349,0.0,0.0,69,0.00,,---,0.00,VWS V14.01,2013-01-26 05:25:00,
2013-01-25 22:26:00,46.7,37.1,30.12,North,349,0.0,0.0,69,0.00,,---,0.00,VWS V14.01,2013-01-26 05:26:00,
2013-01-25 22:30:00,46.3,36.7,30.12,North,349,0.0,0.0,69,0.00,,---,0.00,VWS V14.01,2013-01-26 05:30:00,
2013-01-25 22:35:00,46.1,36.5,30.12,North,349,0.0,0.0,69,0.00,,---,0.00,VWS V14.01,2013-01-26 05:35:00,
2013-01-25 22:36:00,45.8,35.8,30.12,North,349,0.0,0.0,68,0.00,,---,0.00,VWS V14.01,2013-01-26 05:36:00,
2013-01-25 22:40:00,45.1,36.3,30.12,North,349,0.0,1.0,71,0.00,,---,0.00,VWS V14.01,2013-01-26 05:40:00,
2013-01-25 22:45:00,45.0,36.2,30.12,North,349,0.0,0.0,71,0.00,,---,0.00,VWS V14.01,2013-01-26 05:45:00,
2013-01-25 22:50:00,45.4,36.6,30.11,North,349,0.0,0.0,71,0.00,,---,0.00,VWS V14.01,2013-01-26 05:50:00,
2013-01-25 22:55:00,45.6,36.8,30.11,North,349,0.0,0.0,71,0.00,,---,0.00,VWS V14.01,2013-01-26 05:55:00,
2013-01-25 23:00:00,45.7,36.8,30.11,North,349,0.0,0.0,71,0.00,,---,0.00,VWS V14.01,2013-01-26 06:00:00,
2013-01-25 23:05:00,45.5,36.3,30.11,North,349,0.0,0.0,70,0.00,,---,0.00,VWS V14.01,2013-01-26 06:05:00,
2013-01-25 23:10:00,45.1,36.3,30.11,North,349,0.0,0.0,71,0.00,,---,0.00,VWS V14.01,2013-01-26 06:10:00,
2013-01-25 23:15:00,44.5,35.7,30.11,North,349,0.0,0.0,71,0.00,,---,0.00,VWS V14.01,2013-01-26 06:15:00,
2013-01-25 23:20:00,44.4,36.3,30.10,North,349,0.0,0.0,73,0.00,,---,0.00,VWS V14.01,2013-01-26 06:20:00,
2013-01-25 23:25:00,44.0,35.9,30.10,North,349,0.0,0.0,73,0.00,,---,0.00,VWS V14.01,2013-01-26 06:25:00,
2013-01-25 23:30:00,43.4,35.3,30.10,North,349,0.0,0.0,73,0.00,,---,0.00,VWS V14.01,2013-01-26 06:30:00,
2013-01-25 23:35:00,43.5,36.1,30.10,North,349,0.0,0.0,75,0.00,,---,0.00,VWS V14.01,2013-01-26 06:35:00,
2013-01-25 23:40:00,43.6,35.9,30.10,North,349,0.0,0.0,74,0.00,,---,0.00,VWS V14.01,2013-01-26 06:40:00,
2013-01-25 23:45:00,43.4,35.7,30.10,North,349,0.0,0.0,74,0.00,,---,0.00,VWS V14.01,2013-01-26 06:45:00,
2013-01-25 23:50:00,43.1,35.7,30.10,North,349,0.0,0.0,75,0.00,,---,0.00,VWS V14.01,2013-01-26 06:50:00,
2013-01-25 23:55:00,42.9,35.5,30.11,North,349,0.0,0.0,75,0.00,,---,0.00,VWS V14.01,2013-01-26 06:55:00,